Location: Invercargill
(46.4000°S, 168.3500°E)
Time: 16:46:23
(UTC+12:00)

SL-08 RB Rocket - Pass Details

Date: 24 January 2019
Orbit: 647 x 684 km, 97.9° (Epoch: 18 April)

Event Time Altitude Azimuth Distance (km) Brightness Sun altitude
Rises 23:32:25 0° 169° (S) 3,009 7.7 -16.5°
Reaches altitude 10° 23:34:39 10° 170° (S) 2,092 6.9 -16.8°
Maximum altitude 23:39:13 75° 254° (WSW) 692 3.8 -17.2°
Enters shadow 23:42:54 15° 338° (NNW) 1,742 5.5 -17.6°
